[[{"header":{"parameterUnit":"m.s-1","parameterCategory":1,"la1":30.2991,"la2":30.254,"lo1":-89.0895,"lo2":-89.0444,"dy":0.0017,"dx":0.0017,"nx":28,"ny":28,"refTime":"2024-12-24T09:00:00:Z","depth":0,"parameterNumber":2,"parameterNumberName":"U-component_of_WINDS"},"data":[0,0,0,0,0,0,0,0,0,0,0,0,0,0,0,0,0,0,0,0,0,0,0,0,0,0,0,0,0,0,0,0,0,0,0,0,0,0,0,0,0,0,0,0,0,0,0,0,0,0,0,0,0,0,0,0,0,0,-4.7743,-4.7744,0,-4.7783,-4.7783,-4.7784,-4.7613,-4.7608,-4.7603,-4.7598,-4.7642,-4.7648,-4.7654,0,0,0,0,0,0,0,0,0,0,0,0,0,-4.7522,-4.7527,-4.7743,-4.7744,-4.7744,-4.7783,-4.7783,-4.7784,-4.7614,-4.7608,-4.7602,-4.7596,-4.764,-4.7647,-4.7654,0,0,0,0,0,0,0,0,0,0,0,0,0,-4.7596,-4.7529,-4.7743,-4.7664,-4.7657,-4.7783,-4.7783,-4.7784,-4.7615,-4.7608,-4.76,-4.7593,-4.7638,-4.7647,-4.7655,-4.786,0,0,-4.7682,-4.7686,0,0,0,0,0,0,0,0,-4.7592,-4.7604,-4.7675,-4.7669,-4.7662,-4.7685,-4.7721,-4.781,-4.7617,-4.7631,-4.7598,-4.7589,-4.7663,-4.7669,-4.7693,-4.7862,-4.7864,-4.7683,-4.7688,-4.7692,-4.7695,0,0,0,0,0,0,0,-4.7587,-4.7602,-4.7759,-4.7676,-4.7668,-4.7627,-4.7629,-4.7737,-4.7689,-4.7629,-4.7617,-4.7624,-4.7658,-4.7685,-4.7693,-4.7865,-4.7683,-4.769,-4.7696,-4.7699,-4.8204,-4.8212,0,0,0,0,0,0,-4.7592,-4.7598,-4.7758,-4.776,-4.7608,-4.7637,-4.764,-4.7685,-4.7687,-4.768,-4.763,-4.7616,-4.7674,-4.7683,-4.7694,-4.7934,-4.7692,-4.77,-4.7705,-4.8196,-4.8206,-4.8215,0,0,0,0,0,0,-4.7588,-4.7608,-4.7756,-4.7676,-4.7692,-4.7649,-4.7702,-4.769,-4.7717,-4.7688,-4.7679,-4.7667,-4.7668,-4.7682,-4.782,-4.7933,-4.7704,-4.7712,-4.8186,-4.8199,-4.821,-4.8416,0,0,0,0,0,0,-4.7582,-4.7607,-4.7684,-4.7679,-4.7697,-4.7881,-4.7709,-4.7696,-4.7732,-4.7714,-4.772,-4.7714,-4.7663,-4.7808,-4.7829,-4.7941,-4.7719,-4.8176,-4.8192,-4.8206,-4.8399,-4.8434,-4.8464,0,0,0,0,0,-4.7575,-4.7741,-4.7689,-4.7709,-4.7792,-4.7888,-4.7898,-4.7836,-4.7742,-4.782,-4.7801,-4.7713,-4.7917,-4.7823,-4.7845,-4.7962,-4.8169,-4.8187,-4.8205,-4.8385,-4.8427,-4.8463,0,0,0,0,0,0,-4.7762,-4.7739,-4.7681,-4.785,-4.7872,-4.7859,-4.7954,-4.7883,-4.7933,-4.7914,-4.7835,-4.7838,-4.7991,-4.799,-4.7886,-4.8161,-4.8027,-4.8051,-4.8156,-4.8196,-4.8228,-4.8225,-4.7726,0,0,0,0,0,-4.7823,-4.7902,-4.7878,-4.803,-4.8044,-4.7998,-4.8038,-4.7988,-4.8008,-4.8017,-4.8008,-4.8032,-4.81,-4.8148,-4.821,-4.8398,-4.8397,-4.8489,-4.8522,-4.8548,-4.857,-4.8669,-4.871,-4.8275,-4.8275,-4.8274,0,0,-4.795,-4.7947,-4.8002,-4.8068,-4.8079,-4.8163,-4.8007,-4.8103,-4.8165,-4.8031,-4.8161,-4.8156,-4.8177,-4.8342,-4.8413,-4.8346,-4.869,-4.8572,-4.8593,-4.86,-4.8693,-4.8734,-4.8771,-4.8287,-4.8285,-4.8283,0,0,-4.8224,-4.823,-4.8357,-4.8371,-4.839,-4.8358,-4.8389,-4.8386,-4.8377,-4.8506,-4.8407,-4.8481,-4.8602,-4.8621,-4.8647,-4.8929,-4.8851,-4.8951,-4.912,-4.9218,-4.9253,-4.9283,-4.9384,-4.9421,-4.8973,-4.8973,-4.8973,0,-4.8379,-4.8502,-4.8431,-4.8534,-4.8566,-4.8448,-4.8576,-4.8594,-4.8633,-4.8658,-4.8581,-4.8731,-4.8737,-4.8904,-4.8973,-4.8997,-4.903,-4.895,-4.9253,-4.9283,-4.931,-4.9405,-4.9443,-4.8985,-4.8984,-4.8983,-4.8981,0,-4.8693,-4.878,-4.888,-4.8919,-4.8963,-4.9078,-4.9026,-4.9078,-4.9025,-4.9002,-4.9135,-4.9138,-4.9199,-4.9234,-4.9184,-4.9395,-4.9352,-4.9266,-4.913,-4.9365,-4.9453,-4.9489,-4.9003,-4.8998,-4.8995,-4.8992,0,0,-4.9086,-4.9084,-4.9123,-4.9139,-4.9151,-4.9217,-4.9328,-4.9386,-4.9433,-4.9464,-4.9555,-4.966,-4.958,-4.9609,-4.956,-4.9646,-4.987,-4.9548,-4.9547,-4.9608,-5.0103,-5.0168,-5.0212,-4.9817,-4.9824,-4.9829,-5.0101,0,-4.9355,-4.9542,-4.9482,-4.9673,-4.9752,-4.9641,-4.9737,-4.9756,-4.9737,-4.9803,-4.9782,-4.9858,-4.9746,-4.9763,-4.9843,-4.9826,-4.9968,-4.9805,-4.9903,-4.9907,-4.9901,-5.0258,-5.0327,-5.0583,-5.0135,-5.0141,-5.0145,0,-4.9694,-4.9737,-4.9936,-4.9934,-4.9965,-5.0053,-5.0101,-5.0165,-5.0184,-5.0164,-5.0198,-5.013,-5.0239,-5.0103,-5.0252,-5.0143,-5.0179,-5.0177,-5.0185,-5.0192,-5.0041,-5.0275,-5.0663,-5.0702,-5.0199,-5.0195,-5.0191,0,-4.9961,-5.007,-5.0202,-5.0219,-5.0221,-5.0285,-5.0289,-5.03,-5.0339,-5.0382,-5.0407,-5.0463,-5.0494,-5.0539,-5.0488,-5.0393,-5.0646,-5.0505,-5.0633,-5.0635,-5.0692,-5.0689,-5.1092,-5.0716,-5.0715,-5.0714,-5.0713,0,-5.0268,-5.0394,-5.0322,-5.0404,-5.0542,-5.0471,-5.061,-5.0601,-5.0612,-5.0691,-5.0598,-5.0674,-5.0603,-5.0673,-5.0634,-5.0764,-5.0779,-5.0767,-5.0755,-5.0775,-5.0777,-5.0798,-5.0779,-5.0724,-5.0722,-5.072,-5.0718,0,-5.059,-5.0547,-5.0684,-5.0674,-5.0675,-5.0777,-5.0768,-5.0844,-5.0819,-5.0919,-5.0939,-5.09,-5.0977,-5.0931,-5.1011,-5.0984,-5.1154,-5.1118,-5.1148,-5.1138,-5.1269,-5.1258,-5.17,-5.1755,-5.1343,-5.1347,-5.1351,0,-5.0789,-5.0883,-5.0883,-5.0929,-5.0938,-5.1013,-5.1052,-5.0987,-5.1032,-5.106,-5.1133,-5.1202,-5.1254,-5.1383,-5.1362,-5.1423,-5.1387,-5.1538,-5.1396,-5.1413,-5.139,-5.1385,-5.1394,-5.1567,-5.1572,-5.1576,-5.1579,0,-5.1146,-5.112,-5.118,-5.1233,-5.1282,-5.132,-5.1351,-5.1394,-5.1329,-5.1384,-5.1462,-5.1502,-5.1582,-5.1653,-5.1704,-5.1708,-5.1634,-5.1624,-5.1657,-5.1679,-5.1692,-5.1687,-5.1226,-5.1614,-5.1611,-5.1608,-5.1606,-5.1605,-5.1413,-5.1491,-5.1503,-5.1573,-5.1589,-5.162,-5.1691,-5.1674,-5.1737,-5.1797,-5.1755,-5.1847,-5.1864,-5.1924,-5.1939,-5.201,-5.1949,-5.1997,-5.2009,-5.2022,-5.204,-5.1681,-5.2019,-5.2018,-5.2017,-5.2016,-5.2016,0,-5.1765,-5.1767,-5.1832,-5.1878,-5.1933,-5.1857,-5.1888,-5.1939,-5.2021,-5.2042,-5.2095,-5.2184,-5.2252,-5.2237,-5.2298,-5.2358,-5.2326,-5.2377,-5.2372,-5.2374,-5.2091,-5.2056,-5.2402,-5.2402,-5.2402,-5.2402,-5.2402,-5.2402,-5.1955,-5.2083,-5.2059,-5.2195,-5.2197,-5.2285,-5.2309,-5.2338,-5.2355,-5.2458,-5.2514,-5.2503,-5.251,-5.2571,-5.263,-5.2624,-5.2651,-5.2714,-5.2696,-5.2432,-5.2394,-5.2357,-5.2324,-5.2721,-5.2721,-5.2973,-5.2975,-5.2977]},{"header":{"parameterUnit":"m.s-1","parameterCategory":1,"la1":30.2991,"la2":30.254,"lo1":-89.0895,"lo2":-89.0444,"dy":0.0017,"dx":0.0017,"nx":28,"ny":28,"refTime":"2024-12-24T09:00:00:Z","depth":0,"parameterNumber":3,"parameterNumberName":"V-component_of_WINDS"},"data":[0,0,0,0,0,0,0,0,0,0,0,0,0,0,0,0,0,0,0,0,0,0,0,0,0,0,0,0,0,0,0,0,0,0,0,0,0,0,0,0,0,0,0,0,0,0,0,0,0,0,0,0,0,0,0,0,0,0,-1.6883,-1.6883,0,-1.6881,-1.6881,-1.6881,-1.6866,-1.6865,-1.6865,-1.6864,-1.6862,-1.6862,-1.6863,0,0,0,0,0,0,0,0,0,0,0,0,0,-1.687,-1.687,-1.6883,-1.6883,-1.6883,-1.6881,-1.6881,-1.6881,-1.6866,-1.6865,-1.6865,-1.6864,-1.6862,-1.6862,-1.6863,0,0,0,0,0,0,0,0,0,0,0,0,0,-1.6873,-1.687,-1.6883,-1.6875,-1.6874,-1.6881,-1.6881,-1.6881,-1.6866,-1.6865,-1.6865,-1.6864,-1.6862,-1.6862,-1.6863,-1.6877,0,0,-1.6864,-1.6864,0,0,0,0,0,0,0,0,-1.6872,-1.6873,-1.6876,-1.6875,-1.6875,-1.6873,-1.6875,-1.6879,-1.6866,-1.6869,-1.6864,-1.6864,-1.6866,-1.6866,-1.6867,-1.6877,-1.6877,-1.6864,-1.6864,-1.6864,-1.6865,0,0,0,0,0,0,0,-1.6872,-1.6873,-1.6882,-1.6876,-1.6875,-1.687,-1.687,-1.6876,-1.6871,-1.6869,-1.6867,-1.6868,-1.6866,-1.6867,-1.6867,-1.6876,-1.6864,-1.6864,-1.6865,-1.6865,-1.6894,-1.6895,0,0,0,0,0,0,-1.6873,-1.6873,-1.6882,-1.6882,-1.6872,-1.6871,-1.6871,-1.6874,-1.6871,-1.687,-1.6868,-1.6867,-1.6866,-1.6866,-1.6867,-1.6881,-1.6864,-1.6865,-1.6865,-1.6894,-1.6894,-1.6895,0,0,0,0,0,0,-1.6873,-1.6874,-1.6882,-1.6877,-1.6878,-1.6872,-1.6876,-1.6874,-1.6875,-1.687,-1.6869,-1.687,-1.6866,-1.6866,-1.6874,-1.6881,-1.6865,-1.6865,-1.6893,-1.6894,-1.6895,-1.6911,0,0,0,0,0,0,-1.6873,-1.6874,-1.6881,-1.6877,-1.6878,-1.689,-1.6876,-1.6875,-1.6876,-1.6875,-1.6872,-1.6871,-1.6865,-1.6873,-1.6874,-1.6881,-1.6866,-1.6892,-1.6893,-1.6894,-1.691,-1.6912,-1.6915,0,0,0,0,0,-1.6872,-1.6886,-1.6881,-1.6882,-1.6886,-1.6891,-1.6891,-1.6884,-1.6877,-1.6882,-1.6878,-1.6871,-1.688,-1.6874,-1.6875,-1.6882,-1.6892,-1.6893,-1.6894,-1.6909,-1.6912,-1.6915,0,0,0,0,0,0,-1.6891,-1.6885,-1.688,-1.6893,-1.6892,-1.6888,-1.6895,-1.6888,-1.689,-1.6888,-1.6879,-1.6879,-1.6887,-1.6886,-1.6879,-1.6894,-1.6884,-1.6886,-1.6895,-1.6898,-1.69,-1.69,-1.6866,0,0,0,0,0,-1.6896,-1.6901,-1.6896,-1.6908,-1.6908,-1.6901,-1.6903,-1.6898,-1.6897,-1.6896,-1.6893,-1.6892,-1.6894,-1.6896,-1.6898,-1.6909,-1.6907,-1.6915,-1.6917,-1.6919,-1.692,-1.6923,-1.6926,-1.6899,-1.6899,-1.6899,0,0,-1.6908,-1.6905,-1.6909,-1.6911,-1.691,-1.6914,-1.6901,-1.6907,-1.6909,-1.6897,-1.6904,-1.6901,-1.6899,-1.6908,-1.6912,-1.6907,-1.6927,-1.692,-1.6922,-1.6922,-1.6925,-1.6928,-1.693,-1.69,-1.6899,-1.6899,0,0,-1.6931,-1.693,-1.6939,-1.6937,-1.6935,-1.693,-1.6932,-1.6929,-1.6926,-1.6932,-1.6923,-1.6925,-1.693,-1.6928,-1.6927,-1.6946,-1.6939,-1.6947,-1.6959,-1.6962,-1.6964,-1.6966,-1.6971,-1.6974,-1.6948,-1.6948,-1.6948,0,-1.6946,-1.6952,-1.6944,-1.695,-1.695,-1.6938,-1.6945,-1.6944,-1.6943,-1.6943,-1.6937,-1.6941,-1.6939,-1.6946,-1.695,-1.6951,-1.6951,-1.6947,-1.6965,-1.6967,-1.6968,-1.6973,-1.6975,-1.6949,-1.6949,-1.6949,-1.6949,0,-1.6969,-1.6973,-1.698,-1.6979,-1.6979,-1.6986,-1.6978,-1.698,-1.6973,-1.6969,-1.6974,-1.697,-1.697,-1.6971,-1.6966,-1.6977,-1.6974,-1.6967,-1.6957,-1.6972,-1.6976,-1.6978,-1.695,-1.695,-1.695,-1.695,0,0,-1.7006,-1.6997,-1.7,-1.6998,-1.6993,-1.6996,-1.7001,-1.7,-1.7001,-1.7,-1.7002,-1.7005,-1.6997,-1.6997,-1.6991,-1.6994,-1.7006,-1.6986,-1.6986,-1.6989,-1.7016,-1.7021,-1.7024,-1.7001,-1.7002,-1.7002,-1.7016,0,-1.7027,-1.7035,-1.7027,-1.7036,-1.7039,-1.7026,-1.703,-1.7027,-1.7022,-1.7022,-1.7016,-1.7018,-1.7009,-1.7008,-1.701,-1.7005,-1.7012,-1.7003,-1.7003,-1.7003,-1.7003,-1.7026,-1.7032,-1.7046,-1.7018,-1.7018,-1.7018,0,-1.7053,-1.7052,-1.7061,-1.7054,-1.7054,-1.7058,-1.7055,-1.7057,-1.7052,-1.7048,-1.7046,-1.7037,-1.704,-1.703,-1.7032,-1.7027,-1.7026,-1.7022,-1.7023,-1.7022,-1.7012,-1.7025,-1.705,-1.7052,-1.7021,-1.7021,-1.7021,0,-1.7077,-1.7078,-1.7083,-1.7081,-1.7073,-1.7075,-1.7072,-1.7066,-1.7066,-1.7063,-1.7062,-1.706,-1.7058,-1.7056,-1.7047,-1.7041,-1.705,-1.704,-1.7045,-1.7046,-1.7048,-1.7048,-1.7072,-1.7049,-1.7049,-1.7048,-1.7048,0,-1.7101,-1.7107,-1.7093,-1.7096,-1.7102,-1.7091,-1.7097,-1.7092,-1.7086,-1.7087,-1.7076,-1.7077,-1.7065,-1.7064,-1.7057,-1.7059,-1.7059,-1.7054,-1.7052,-1.7055,-1.7055,-1.7054,-1.7053,-1.7049,-1.7049,-1.7049,-1.7049,0,-1.7129,-1.712,-1.7125,-1.7115,-1.7113,-1.7117,-1.7109,-1.711,-1.7104,-1.7105,-1.7104,-1.7094,-1.7092,-1.7082,-1.7078,-1.7073,-1.7077,-1.7074,-1.7079,-1.7078,-1.7084,-1.7083,-1.7107,-1.7109,-1.7085,-1.7085,-1.7086,0,-1.7145,-1.7149,-1.714,-1.7139,-1.7136,-1.7136,-1.7134,-1.7123,-1.7122,-1.7115,-1.7117,-1.7114,-1.7111,-1.7108,-1.71,-1.7096,-1.7092,-1.71,-1.7091,-1.7093,-1.709,-1.709,-1.709,-1.7103,-1.7103,-1.7103,-1.7103,0,-1.7174,-1.7168,-1.7167,-1.7163,-1.7161,-1.7158,-1.7154,-1.7154,-1.7141,-1.714,-1.7137,-1.7135,-1.713,-1.7127,-1.7121,-1.7116,-1.7107,-1.7106,-1.7107,-1.711,-1.7112,-1.711,-1.7084,-1.7106,-1.7106,-1.7105,-1.7105,-1.7105,-1.7196,-1.7198,-1.719,-1.7188,-1.7183,-1.7179,-1.718,-1.7172,-1.717,-1.7165,-1.7158,-1.7156,-1.7148,-1.7139,-1.7135,-1.7132,-1.7127,-1.7129,-1.713,-1.713,-1.7131,-1.7113,-1.7131,-1.7131,-1.7131,-1.7131,-1.7131,0,-1.7223,-1.7217,-1.7215,-1.7208,-1.7206,-1.7197,-1.7191,-1.719,-1.7188,-1.7182,-1.7178,-1.7174,-1.717,-1.716,-1.7155,-1.7155,-1.715,-1.7153,-1.7153,-1.7152,-1.7136,-1.7135,-1.7157,-1.7157,-1.7157,-1.7157,-1.7157,-1.7157,-1.7237,-1.7239,-1.7232,-1.7231,-1.7224,-1.7222,-1.7219,-1.7214,-1.7209,-1.7205,-1.7201,-1.7194,-1.7186,-1.7179,-1.7175,-1.7172,-1.717,-1.7174,-1.717,-1.7156,-1.7153,-1.7151,-1.715,-1.7174,-1.7174,-1.7186,-1.7186,-1.7186]}]]